| time (UTC) | temp C | wind direction | speed KPH | gust KPH | rain 1hr cm | rain 24hr cm | rain mn cm | humidity % | barometer mb |
| 20260505100351 | 15 | 198 | 8.0 | 12.9 | 0.00 | 0.00 | 0.00 | 81 | 1012.5 |
| 20260505093339 | 15 | 184 | 9.7 | 16.1 | 0.00 | 0.00 | 0.00 | 80 | 1012.4 |
| 20260505090345 | 16 | 197 | 9.7 | 16.1 | 0.00 | 0.00 | 0.00 | 78 | 1012.2 |
| 20260505083324 | 16 | 192 | 9.7 | 16.1 | 0.00 | 0.00 | 0.00 | 76 | 1012.3 |
| 20260505080333 | 16 | 200 | 6.4 | 16.1 | 0.00 | 0.00 | 0.00 | 75 | 1012.3 |
| 20260505073340 | 17 | 188 | 8.0 | 14.5 | 0.00 | 0.00 | 0.00 | 74 | 1012.0 |
| 20260505070344 | 17 | 205 | 9.7 | 16.1 | 0.00 | 0.00 | 0.00 | 74 | 1011.9 |
| 20260505063333 | 17 | 360 | 12.9 | 17.7 | 0.00 | 0.00 | 0.00 | 75 | 1012.0 |
| 20260505060400 | 17 | 360 | 11.3 | 22.5 | 0.00 | 0.00 | 0.00 | 74 | 1012.0 |
| 20260505053329 | 17 | 197 | 12.9 | 27.4 | 0.00 | 0.00 | 0.00 | 76 | 1012.0 |
| 20260505050335 | 17 | 360 | 9.7 | 27.4 | 0.00 | 0.00 | 0.00 | 77 | 1012.1 |
| 20260505040328 | 17 | 360 | 12.9 | 33.8 | 0.00 | 0.00 | 0.00 | 81 | 1012.0 |
| 20260505033328 | 16 | 360 | 9.7 | 20.9 | 0.00 | 0.00 | 0.00 | 85 | 1011.9 |
| 20260505030338 | 16 | 155 | 6.4 | 11.3 | 0.00 | 0.00 | 0.00 | 82 | 1011.9 |
| 20260505023346 | 16 | 155 | 6.4 | 12.9 | 0.00 | 0.00 | 0.00 | 80 | 1011.8 |
| 20260505020321 | 16 | 200 | 8.0 | 19.3 | 0.00 | 0.00 | 0.00 | 77 | 1011.7 |
| 20260505013332 | 17 | 177 | 4.8 | 11.3 | 0.00 | 0.00 | 0.00 | 74 | 1011.7 |
| 20260505010337 | 17 | 181 | 6.4 | 11.3 | 0.00 | 0.00 | 0.00 | 72 | 1011.5 |
| 20260505003341 | 18 | 144 | 4.8 | 16.1 | 0.00 | 0.00 | 0.00 | 69 | 1011.2 |
| 20260505000325 | 18 | 360 | 8.0 | 14.5 | 0.00 | 0.00 | 0.00 | 62 | 1011.2 |
| 20260504233335 | 20 | 176 | 6.4 | 14.5 | 0.00 | 0.00 | 0.00 | 59 | 1011.1 |
| 20260504230403 | 21 | 202 | 8.0 | 19.3 | 0.00 | 0.00 | 0.00 | 50 | 1011.0 |
| 20260504223322 | 22 | 214 | 9.7 | 22.5 | 0.00 | 0.00 | 0.00 | 49 | 1010.9 |
| 20260504220332 | 22 | 147 | 8.0 | 16.1 | 0.00 | 0.00 | 0.00 | 44 | 1011.0 |
| 20260504213342 | 22 | 192 | 11.3 | 22.5 | 0.00 | 0.00 | 0.00 | 40 | 1011.2 |
| 20260504210323 | 22 | 159 | 11.3 | 25.7 | 0.00 | 0.00 | 0.00 | 39 | 1011.2 |
| 20260504203329 | 22 | 169 | 11.3 | 20.9 | 0.00 | 0.00 | 0.00 | 41 | 1011.4 |
| 20260504200334 | 23 | 215 | 9.7 | 22.5 | 0.00 | 0.00 | 0.00 | 44 | 1011.7 |
| 20260504193343 | 23 | 200 | 9.7 | 22.5 | 0.00 | 0.00 | 0.00 | 42 | 1011.9 |
| 20260504190322 | 23 | 230 | 9.7 | 20.9 | 0.00 | 0.00 | 0.00 | 36 | 1012.2 |
| 20260504183323 | 23 | 291 | 9.7 | 22.5 | 0.00 | 0.00 | 0.00 | 34 | 1012.5 |
| 20260504180325 | 23 | 215 | 4.8 | 14.5 | 0.00 | 0.00 | 0.00 | 37 | 1012.9 |
| 20260504173356 | 23 | 205 | 8.0 | 16.1 | 0.00 | 0.00 | 0.00 | 38 | 1013.2 |
| 20260504170402 | 22 | 298 | 4.8 | 9.7 | 0.00 | 0.00 | 0.00 | 36 | 1013.5 |
| 20260504160328 | 20 | 236 | 8.0 | 14.5 | 0.00 | 0.00 | 0.00 | 37 | 1014.2 |
| 20260504150320 | 20 | 223 | 6.4 | 12.9 | 0.00 | 0.00 | 0.00 | 49 | 1014.7 |
| 20260504140338 | 18 | 157 | 6.4 | 11.3 | 0.00 | 0.00 | 0.00 | 52 | 1014.7 |
| 20260504130324 | 16 | 360 | 9.7 | 20.9 | 0.00 | 0.00 | 0.00 | 61 | 1015.3 |
| 20260504110338 | 12 | 205 | 8.0 | 12.9 | 0.00 | 0.00 | 0.00 | 83 | 1016.1 |